Regional Weather Roundup
Issued by NWS

Home | Current Version | Previous Version | Graphics & Text | Print | Product List | Glossary On
Versions: 1 2 3 4 5 6 7 8 9 10 11 12 13 14 15 16 17 18 19 20 21 22 23 24 25 26 27 28 29 30 31 32 33 34 35 36 37 38 39 40 41 42 43 44 45 46 47 48 49 50
000
ASUS43 KMKX 271911
RWRWI

WISCONSIN REGIONAL WEATHER ROUNDUP
NATIONAL WEATHER SERVICE MILWAUKEE/SULLIVAN WI
200 PM CDT TUE SEP 27 2016

NOTE: "FAIR" INDICATES FEW OR NO CLOUDS BELOW 12,000 FEET WITH NO
SIGNIFICANT WEATHER AND/OR OBSTRUCTIONS TO VISIBILITY.

WIZ001-002-006>008-014>016-023>028-272000-
NORTHWEST WISCONSIN

CITY           SKY/WX    TMP DP  RH WIND       PRES   REMARKS
SUPERIOR ARPT  LGT RAIN  50  46  87 NW9       29.72R
ASHLAND        LGT RAIN  51  48  89 NW14      29.68R
HAYWARD        LGT RAIN  49  46  90 MISG      29.71S
SIREN          RAIN      49  47  93 NW8       29.76R
CUMBERLAND     RAIN      46  45  93 NW13G20   29.74S
RICE LAKE      LGT RAIN  50  46  88 W7        29.75S
CHETEK         NOT AVBL
LADYSMITH      DRIZZLE   51  48  90 W15       29.72S
EAU CLAIRE     LGT RAIN  53  45  74 NW14      29.74S
MENOMONIE      LGT RAIN  53  46  78 W9G17     29.76S
NEW RICHMOND   DRIZZLE   52  44  74 NW9       29.77S
OSCEOLA        DRIZZLE   52  45  77 NW9G16    29.80S
$$

WIZ003>005-009-010-017-018-272000-
NORTH CENTRAL WISCONSIN

CITY           SKY/WX    TMP DP  RH WIND       PRES   REMARKS
MANITOWISH WTR NOT AVBL
ARBOR VITAE    CLOUDY    52  48  87 NW14G20   29.64R
WOODRUFF       CLOUDY    52  48  87 NW14G20   29.64R
RHINELANDER    LGT RAIN  49  49 100 W10       29.64S
EAGLE RIVER    RAIN      49  48  95 NW7G16    29.62R
LAND O LAKES   DRIZZLE   49  47  91 W5        29.63R
PHILLIPS       LGT RAIN  48  47  95 W7        29.67R
TOMAHAWK       LGT RAIN  49  46  87 W12       29.66S
MEDFORD        DRIZZLE   48  48 100 W7        29.69S
MERRILL        DRIZZLE   50  48  91 W10G16    29.67S
$$

WIZ029-030-035-036-043>047-272000-
CENTRAL WISCONSIN

CITY           SKY/WX    TMP DP  RH WIND       PRES   REMARKS
WAUSAU         LGT RAIN  50  47  89 W15       29.67S
MOSINEE        CLOUDY    52  45  76 W14G20    29.69S
MARSHFIELD     CLOUDY    53  44  71 W13       29.70S
STEVENS POINT  LGT RAIN  51  43  74 W12       29.70S
WAUPACA        CLOUDY    57  45  62 W17G24    29.70R
WAUTOMA        CLOUDY    55  44  66 W15G23    29.72S
WISC RAPIDS    LGT RAIN  54  45  71 W14       29.72F
CAMP DOUGLAS   CLOUDY    55  45  67 W12       29.73F
$$

WIZ011>013-019>022-031-037>040-048>050-272000-
NORTHEAST WISCONSIN

CITY           SKY/WX    TMP DP  RH WIND       PRES   REMARKS
ANTIGO         RAIN      49  47  96 W3        29.65R
SHAWANO        DRIZZLE   55  47  76 W9        29.66S
OCONTO         NOT AVBL
STURGEON BAY   LGT RAIN  53  50  89 W10G17    29.64R
GREEN BAY      CLOUDY    57  47  69 W13G24    29.65S
MANITOWOC      CLOUDY    58  45  62 MISG      29.67F
APPLETON       CLOUDY    55  43  62 W12G17    29.67S
CLINTONVILLE   NOT AVBL
OSHKOSH        CLOUDY    56  43  61 W12G22    29.69S
$$

WIZ032>034-041-042-053>061-272000-
SOUTHWEST WISCONSIN

CITY           SKY/WX    TMP DP  RH WIND       PRES   REMARKS
LA CROSSE      CLOUDY    62  43  49 NW14      29.75F
SPARTA         CLOUDY    57  44  61 NW8       29.75F
VIROQUA        PTSUNNY   63  40  42 W12G20    29.75F
BOSCOBEL       SUNNY     68  39  34 W13G25    29.76F
PRAIRIE DU CHI CLOUDY    67  32  27 W17G26    29.76F
PLATTEVILLE    SUNNY     66  37  34 W20G26    29.77F
$$

WIZ056-057-062-063-064-067-068-272000-
SOUTH CENTRAL WISCONSIN

CITY           SKY/WX    TMP DP  RH WIND       PRES   REMARKS
REEDSBURG      NOT AVBL
BARABOO/DELLS  CLOUDY    58  41  52 NW12      29.74F
LONE ROCK      MOSUNNY   64  41  42 W14G23    29.75F
MINERAL POINT  SUNNY     66  37  34 W17G23    29.75F
MADISON        PTSUNNY   61  42  49 W8        29.73F
MIDDLETON      NOT AVBL
WATERTOWN      CLOUDY    58  43  57 W15       29.73F
MONROE         SUNNY     64  37  36 W22G31    29.75F
JANESVILLE     MOSUNNY   66  39  37 W22G29    29.74F
$$

WIZ051-052-058>065-066-070>072-272000-
SOUTHEAST WISCONSIN

CITY           SKY/WX    TMP DP  RH WIND       PRES   REMARKS
MILWAUKEE      CLOUDY    63  41  44 W16G25    29.73F
WAUKESHA       CLOUDY    57  41  54 W17G25    29.74F
MILWAUKEE/TIMM CLOUDY    59  39  47 W15G30    29.73F
RACINE         PTSUNNY   63  42  46 NW14G25   29.73F
BURLINGTON     CLOUDY    63  40  42 W16G22    29.73F
KENOSHA        MOSUNNY   67  43  41 W20G28    29.72F
FOND DU LAC    CLOUDY    57  44  62 W14       29.71S
SHEBOYGAN      CLOUDY    56  44  64 W10       29.69F
WEST BEND      CLOUDY    55  41  58 W15G23    29.72S
JUNEAU         CLOUDY    56  42  59 SW18      29.74S
$$

LSZ147-162-272000-
LAKE SUPERIOR

STATION/POSITION TIME  TEMP    WIND        PRES    WAVE
                       AIR SEA DIR/SP/G            HT/PER
                 (UTC) (F)     (DEG/KT/KT) (MB)    (FT/S)
W MID LAKE BUOY  1850   51 47  290/ 10/ 12 1002.2R   3/ 5
DEVILS ISLAND    1800   51     290/ 14/ 17 1004.1R
SAXON HARBOR     1812   53     300/ 16/ 26 1003.7F
$$

LMZ867-665-643>646-272000-
LAKE MICHIGAN

STATION/POSITION TIME  TEMP    WIND        PRES    WAVE
                       AIR SEA DIR/SP/G            HT/PER
                 (UTC) (F)     (DEG/KT/KT) (MB)    (FT/S)
CHAMBERS ISLAND  1800   54     300/  9/ 13 1002.7R
N MID LAKE BUOY  1850   54 66  280/ 19/ 23 1001.3R   4/ 6
NORTHPORT PIER   1800   54     280/  8/ 14 1002.7R
SISTER BAY       1838   52     320/ 16/ 18   N/A
ALGOMA LAKESHORE 1817          270/ 12/ 17   N/A
KEWAUNEE LAKESHO 1800   58     260/ 10/ 20 1003.4R
SHEBOYGAN LAKESH 1900   56     250/ 13/ 16 1005.3R
PORT WASHINGTON  1800   60     260/ 14/ 20 1006.8
ATWATER BUOY     1800   57 54  270/ 17/ 23 1006.8S
MILWAUKEE LAKESH 1810   58     290/ 13/ 15   N/A
S MID LAKE BUOY  1850   61 70  280/ 17/ 23 1005.8F   4/ 5
KENOSHA   LAKESH 1900   64     260/ 19/ 26 1006.4F
$$

TC  - TEMPERATURE IN CELSIUS
VSB - VISIBILITY IN STATUTE MILES
WCI - WIND CHILL INDEX
HX  - HEAT INDEX





USA.gov is the U.S. government's official web portal to all federal, state and local government web resources and services.